When you browse on this site, cookies collect data to enhance your experience and personalize the content and advertising you see.
Visit our Privacy Policy to learn more. By continuing to use the site, you agree to this use of cookies and data.
  • In Romania
  • List of Countries
  • For 7 days
  • Water Temperature
  • Weather Map
  • Weather Widgets
  • user-avatar
    Login

    Hourly Weather Mansa Konko

    Today, 12 November, Tuesday

    Time Temperature Precipitation Wind Pressure Humidity
    00:00 +27°C° 0 mm 1 mps 755 mmHg 41%
    01:00 +25°C° 0 mm 0 mps 755 mmHg 44%
    02:00 +24°C° 0 mm 0 mps 755 mmHg 47%
    03:00 +24°C° 0 mm 0 mps 755 mmHg 45%
    04:00 +26°C° 0 mm 1 mps 755 mmHg 43%
    05:00 +25°C° 0 mm 1 mps 755 mmHg 42%
    06:00 +27°C° 0 mm 2 mps 755 mmHg 36%
    07:00 +29°C° 0 mm 2 mps 756 mmHg 31%
    08:00 +31°C° 0 mm 3 mps 756 mmHg 25%
    09:00 +34°C° 0 mm 3 mps 756 mmHg 21%
    10:00 +37°C° 0 mm 4 mps 756 mmHg 17%
    11:00 +41°C° 0 mm 4 mps 755 mmHg 13%
    12:00 +42°C° 0 mm 4 mps 754 mmHg 13%
    13:00 +42°C° 0 mm 3 mps 754 mmHg 12%
    14:00 +43°C° 0 mm 3 mps 753 mmHg 12%
    15:00 +41°C° 0 mm 2 mps 753 mmHg 14%
    16:00 +39°C° 0 mm 1 mps 753 mmHg 16%
    17:00 +35°C° 0 mm 0 mps 753 mmHg 18%
    18:00 +35°C° 0 mm 1 mps 753 mmHg 21%
    19:00 +33°C° 0 mm 1 mps 754 mmHg 23%
    20:00 +31°C° 0 mm 2 mps 755 mmHg 25%
    21:00 +30°C° 0 mm 2 mps 755 mmHg 30%
    22:00 +28°C° 0 mm 2 mps 755 mmHg 34%
    23:00 +27°C° 0 mm 2 mps 755 mmHg 39%

    Tomorrow, 13 November, Wednesday

    Time Temperature Precipitation Wind Pressure Humidity
    00:00 +27°C° 0 mm 2 mps 755 mmHg 40%
    01:00 +26°C° 0 mm 1 mps 755 mmHg 41%
    02:00 +25°C° 0 mm 1 mps 755 mmHg 42%
    03:00 +25°C° 0 mm 1 mps 755 mmHg 40%
    04:00 +25°C° 0 mm 1 mps 755 mmHg 38%
    05:00 +25°C° 0 mm 1 mps 755 mmHg 36%
    06:00 +26°C° 0 mm 1 mps 755 mmHg 34%
    07:00 +28°C° 0 mm 2 mps 756 mmHg 31%
    08:00 +30°C° 0 mm 3 mps 756 mmHg 29%
    09:00 +33°C° 0 mm 3 mps 756 mmHg 26%
    10:00 +36°C° 0 mm 3 mps 756 mmHg 23%
    11:00 +39°C° 0 mm 3 mps 755 mmHg 20%
    12:00 +40°C° 0 mm 3 mps 755 mmHg 20%
    13:00 +40°C° 0 mm 3 mps 754 mmHg 19%
    14:00 +41°C° 0 mm 2 mps 753 mmHg 19%
    15:00 +40°C° 0 mm 2 mps 754 mmHg 21%
    16:00 +39°C° 0 mm 2 mps 754 mmHg 24%
    17:00 +38°C° 0 mm 2 mps 754 mmHg 26%
    18:00 +35°C° 0 mm 3 mps 754 mmHg 31%
    19:00 +33°C° 0 mm 3 mps 755 mmHg 35%
    20:00 +30°C° 0 mm 4 mps 756 mmHg 40%
    21:00 +29°C° 0 mm 3 mps 756 mmHg 44%
    22:00 +28°C° 0 mm 3 mps 756 mmHg 48%
    23:00 +26°C° 0 mm 2 mps 757 mmHg 52%

    Day after tomorrow, 14 November, Thursday

    Time Temperature Precipitation Wind Pressure Humidity
    00:00 +26°C° 0 mm 2 mps 756 mmHg 52%
    01:00 +26°C° 0 mm 2 mps 756 mmHg 52%
    02:00 +25°C° 0 mm 2 mps 756 mmHg 53%
    03:00 +25°C° 0 mm 2 mps 756 mmHg 51%
    04:00 +25°C° 0 mm 2 mps 756 mmHg 50%
    05:00 +24°C° 0 mm 1 mps 756 mmHg 48%
    06:00 +26°C° 0 mm 1 mps 756 mmHg 43%
    07:00 +27°C° 0 mm 1 mps 756 mmHg 38%
    08:00 +29°C° 0 mm 1 mps 757 mmHg 33%
    09:00 +32°C° 0 mm 1 mps 756 mmHg 28%
    10:00 +35°C° 0 mm 1 mps 756 mmHg 24%
    11:00 +39°C° 0 mm 1 mps 756 mmHg 19%
    12:00 +40°C° 0 mm 1 mps 755 mmHg 19%
    13:00 +40°C° 0 mm 1 mps 754 mmHg 19%
    14:00 +41°C° 0 mm 1 mps 754 mmHg 19%
    15:00 +40°C° 0 mm 1 mps 754 mmHg 21%
    16:00 +38°C° 0 mm 2 mps 753 mmHg 24%
    17:00 +37°C° 0 mm 2 mps 753 mmHg 27%
    18:00 +35°C° 0 mm 3 mps 754 mmHg 31%
    19:00 +33°C° 0 mm 3 mps 755 mmHg 35%
    20:00 +30°C° 0 mm 3 mps 755 mmHg 39%
    21:00 +29°C° 0 mm 3 mps 756 mmHg 43%
    22:00 +28°C° 0 mm 3 mps 756 mmHg 47%
    23:00 +27°C° 0 mm 2 mps 756 mmHg 51%

    15 November, Friday

    Time Temperature Precipitation Wind Pressure Humidity
    00:00 +26°C° 0 mm 2 mps 756 mmHg 51%
    01:00 +26°C° 0 mm 2 mps 755 mmHg 51%
    02:00 +25°C° 0 mm 2 mps 755 mmHg 51%
    03:00 +25°C° 0 mm 2 mps 755 mmHg 52%
    04:00 +24°C° 0 mm 2 mps 755 mmHg 53%
    05:00 +24°C° 0 mm 1 mps 755 mmHg 54%
    06:00 +25°C° 0 mm 2 mps 755 mmHg 49%
    07:00 +27°C° 0 mm 2 mps 756 mmHg 45%
    08:00 +29°C° 0 mm 2 mps 756 mmHg 40%
    09:00 +31°C° 0 mm 2 mps 756 mmHg 33%
    10:00 +35°C° 0 mm 2 mps 756 mmHg 26%
    11:00 +38°C° 0 mm 2 mps 755 mmHg 19%
    12:00 +39°C° 0 mm 2 mps 755 mmHg 19%
    13:00 +39°C° 0 mm 3 mps 754 mmHg 18%
    14:00 +40°C° 0 mm 3 mps 753 mmHg 18%
    15:00 +39°C° 0 mm 3 mps 753 mmHg 22%
    16:00 +37°C° 0 mm 3 mps 753 mmHg 25%
    17:00 +36°C° 0 mm 4 mps 753 mmHg 29%
    18:00 +34°C° 0 mm 4 mps 754 mmHg 38%
    19:00 +30°C° 0 mm 4 mps 754 mmHg 48%
    20:00 +28°C° 0 mm 4 mps 755 mmHg 57%
    21:00 +27°C° 0 mm 3 mps 755 mmHg 58%
    22:00 +27°C° 0 mm 3 mps 755 mmHg 59%
    23:00 +26°C° 0 mm 2 mps 755 mmHg 60%

    16 November, Saturday

    Time Temperature Precipitation Wind Pressure Humidity
    00:00 +25°C° 0 mm 2 mps 755 mmHg 61%
    01:00 +25°C° 0 mm 2 mps 755 mmHg 62%
    02:00 +24°C° 0 mm 2 mps 755 mmHg 64%
    03:00 +24°C° 0 mm 2 mps 755 mmHg 66%
    04:00 +24°C° 0 mm 2 mps 755 mmHg 69%
    05:00 +23°C° 0 mm 2 mps 755 mmHg 71%
    06:00 +25°C° 0 mm 2 mps 755 mmHg 64%
    07:00 +26°C° 0 mm 3 mps 756 mmHg 57%
    08:00 +28°C° 0 mm 3 mps 756 mmHg 51%
    09:00 +31°C° 0 mm 3 mps 756 mmHg 40%
    10:00 +35°C° 0 mm 3 mps 756 mmHg 29%
    11:00 +38°C° 0 mm 3 mps 755 mmHg 18%
    12:00 +39°C° 0 mm 3 mps 754 mmHg 16%
    13:00 +40°C° 0 mm 3 mps 754 mmHg 15%
    14:00 +41°C° 0 mm 2 mps 753 mmHg 14%
    15:00 +40°C° 0 mm 2 mps 753 mmHg 16%
    16:00 +38°C° 0 mm 2 mps 753 mmHg 18%
    17:00 +37°C° 0 mm 2 mps 753 mmHg 20%
    18:00 +35°C° 0 mm 3 mps 753 mmHg 29%
    19:00 +31°C° 0 mm 3 mps 754 mmHg 39%
    20:00 +28°C° 0 mm 3 mps 755 mmHg 49%
    21:00 +28°C° 0 mm 3 mps 755 mmHg 49%
    22:00 +28°C° 0 mm 2 mps 755 mmHg 49%
    23:00 +27°C° 0 mm 2 mps 755 mmHg 49%

    17 November, Sunday

    Time Temperature Precipitation Wind Pressure Humidity
    00:00 +27°C° 0 mm 2 mps 755 mmHg 49%
    01:00 +26°C° 0 mm 2 mps 755 mmHg 49%
    02:00 +25°C° 0 mm 2 mps 755 mmHg 50%
    03:00 +25°C° 0 mm 2 mps 754 mmHg 50%
    04:00 +25°C° 0 mm 2 mps 754 mmHg 51%
    05:00 +24°C° 0 mm 2 mps 754 mmHg 52%
    06:00 +26°C° 0 mm 2 mps 755 mmHg 45%
    07:00 +28°C° 0 mm 2 mps 755 mmHg 39%
    08:00 +29°C° 0 mm 3 mps 756 mmHg 33%
    09:00 +32°C° 0 mm 2 mps 756 mmHg 27%
    10:00 +35°C° 0 mm 1 mps 756 mmHg 22%
    11:00 +39°C° 0 mm 1 mps 756 mmHg 16%
    12:00 +40°C° 0 mm 1 mps 755 mmHg 16%
    13:00 +41°C° 0 mm 1 mps 754 mmHg 15%
    14:00 +41°C° 0 mm 1 mps 753 mmHg 14%
    15:00 +40°C° 0 mm 1 mps 754 mmHg 17%
    16:00 +39°C° 0 mm 2 mps 754 mmHg 19%
    17:00 +37°C° 0 mm 2 mps 754 mmHg 21%
    18:00 +35°C° 0 mm 2 mps 754 mmHg 25%
    19:00 +33°C° 0 mm 3 mps 755 mmHg 29%
    20:00 +31°C° 0 mm 3 mps 756 mmHg 33%
    21:00 +30°C° 0 mm 3 mps 756 mmHg 38%
    22:00 +29°C° 0 mm 2 mps 756 mmHg 44%
    23:00 +28°C° 0 mm 2 mps 757 mmHg 49%
    Show more